Location: Daouli
(14.8671°N, 3.2030°W)
Time: 01:47:03
(UTC+00:00)

Cosmos 2219 - Pass Details

Date: 29 October 2020
Orbit: 832 x 862 km, 71.1° (Epoch: 02 December)

Event Time Altitude Azimuth Distance (km) Brightness Sun altitude
Rises 18:12:10 0° 0° (N) 3,430 6.2 -7.2°
Reaches altitude 10° 18:14:57 10° 11° (N) 2,492 5.4 -7.9°
Maximum altitude 18:19:52 29° 71° (ENE) 1,511 4.0 -9.0°
Drops below altitude 10° 18:24:46 10° 130° (SE) 2,481 5.3 -10.2°
Sets 18:27:31 0° 141° (SE) 3,413 6.1 -10.8°
